[[{"header":{"parameterUnit":"m.s-1","parameterCategory":1,"la1":30.2991,"la2":30.254,"lo1":-89.0895,"lo2":-89.0444,"dy":0.0017,"dx":0.0017,"nx":28,"ny":28,"refTime":"2025-11-08T09:00:00:Z","depth":0,"parameterNumber":2,"parameterNumberName":"U-component_of_WINDS"},"data":[0,0,0,0,0,0,0,0,0,0,0,0,0,0,0,0,0,0,0,0,0,0,0,0,0,0,0,0,0,0,0,0,0,0,0,0,0,0,0,0,0,0,0,0,0,0,0,0,0,0,0,0,0,0,0,0,0,0,1.495,1.4951,0,1.4955,1.4955,1.4955,1.4994,1.4995,1.4996,1.4997,1.5,1.4999,1.4998,0,0,0,0,0,0,0,0,0,0,0,0,0,1.4976,1.4975,1.495,1.4951,1.4951,1.4955,1.4955,1.4955,1.4993,1.4995,1.4996,1.4997,1.5,1.4999,1.4998,0,0,0,0,0,0,0,0,0,0,0,0,0,1.4971,1.4975,1.495,1.497,1.4972,1.4955,1.4955,1.4955,1.4993,1.4995,1.4996,1.4998,1.5,1.4999,1.4998,1.4961,0,0,1.4994,1.4994,0,0,0,0,0,0,0,0,1.4971,1.497,1.4967,1.4969,1.4971,1.4975,1.4965,1.4957,1.4993,1.4985,1.4997,1.4998,1.499,1.499,1.4988,1.4961,1.4961,1.4994,1.4993,1.4993,1.4992,0,0,0,0,0,0,0,1.4972,1.497,1.4952,1.4967,1.497,1.4979,1.498,1.4964,1.4979,1.4986,1.4989,1.4989,1.4992,1.4989,1.4988,1.4961,1.4994,1.4993,1.4992,1.4992,1.4906,1.4905,0,0,0,0,0,0,1.4969,1.497,1.4952,1.4952,1.4975,1.4978,1.4979,1.4972,1.498,1.4982,1.4988,1.4991,1.499,1.4989,1.4988,1.4946,1.4993,1.4992,1.4991,1.4908,1.4906,1.4904,0,0,0,0,0,0,1.497,1.4967,1.4952,1.4962,1.4961,1.4976,1.4968,1.4972,1.4969,1.4981,1.4984,1.4982,1.4991,1.499,1.4968,1.4946,1.4991,1.499,1.491,1.4907,1.4905,1.486,0,0,0,0,0,0,1.497,1.4967,1.4953,1.4961,1.496,1.4931,1.4967,1.4971,1.4967,1.4971,1.4976,1.4979,1.4992,1.497,1.4967,1.4946,1.4989,1.4912,1.4909,1.4906,1.4864,1.4857,1.4851,0,0,0,0,0,1.4971,1.494,1.4952,1.495,1.4943,1.493,1.4929,1.4946,1.4965,1.4951,1.4959,1.4978,1.495,1.4967,1.4964,1.4942,1.4913,1.491,1.4906,1.4867,1.4858,1.4851,0,0,0,0,0,0,1.4927,1.4941,1.4955,1.4926,1.4926,1.4936,1.4919,1.4936,1.4931,1.4935,1.4956,1.4957,1.4931,1.4935,1.4954,1.4908,1.4935,1.4931,1.4906,1.4898,1.4891,1.489,1.4988,0,0,0,0,0,1.4915,1.4903,1.4916,1.4889,1.4888,1.4904,1.4899,1.4912,1.4913,1.4913,1.492,1.492,1.4912,1.4905,1.4898,1.4865,1.4867,1.4849,1.4843,1.4837,1.4833,1.4816,1.4808,1.4893,1.4893,1.4893,0,0,1.4887,1.4894,1.4885,1.488,1.4882,1.487,1.4904,1.4889,1.488,1.4911,1.4891,1.4896,1.4898,1.487,1.4859,1.4873,1.481,1.4833,1.4829,1.4827,1.4812,1.4804,1.4797,1.4891,1.4891,1.4892,0,0,1.4831,1.4835,1.4813,1.4815,1.4818,1.4829,1.4824,1.4832,1.4837,1.4817,1.4841,1.483,1.4815,1.4815,1.4814,1.476,1.4778,1.4758,1.4723,1.4707,1.47,1.4694,1.4675,1.4667,1.4754,1.4754,1.4753,0,1.4797,1.4779,1.48,1.4784,1.4781,1.481,1.4788,1.4789,1.4789,1.4787,1.4803,1.4785,1.4788,1.4762,1.4749,1.4747,1.4741,1.4756,1.4699,1.4694,1.4689,1.467,1.4663,1.4751,1.4751,1.4752,1.4752,0,1.4737,1.4724,1.4706,1.4707,1.4702,1.4683,1.4701,1.4694,1.4708,1.4718,1.4697,1.4703,1.4698,1.4693,1.4706,1.4668,1.4677,1.4696,1.4723,1.4678,1.4661,1.4654,1.4747,1.4748,1.4749,1.475,0,0,1.4651,1.4665,1.4657,1.4658,1.4665,1.4656,1.4639,1.4635,1.4628,1.4628,1.4614,1.4602,1.462,1.4618,1.4632,1.4618,1.4575,1.4639,1.4639,1.4626,1.4534,1.4518,1.4509,1.4588,1.4586,1.4585,1.4533,0,1.4596,1.4568,1.4586,1.4555,1.4544,1.4573,1.4558,1.4561,1.457,1.4562,1.4572,1.4562,1.4587,1.4586,1.4574,1.4583,1.4556,1.4587,1.4574,1.4573,1.4571,1.4501,1.4484,1.4434,1.4527,1.4526,1.4525,0,1.4528,1.4526,1.4493,1.4504,1.45,1.4486,1.4484,1.4476,1.4481,1.4488,1.4487,1.4505,1.4489,1.4518,1.4497,1.4517,1.4513,1.4517,1.4516,1.4514,1.4545,1.4495,1.4419,1.441,1.4515,1.4515,1.4516,0,1.4467,1.4457,1.4436,1.4436,1.4448,1.4438,1.4442,1.4448,1.4445,1.4443,1.4441,1.4438,1.4435,1.4432,1.4449,1.4469,1.4425,1.4456,1.4431,1.443,1.4418,1.4419,1.4338,1.4419,1.4419,1.4419,1.4419,0,1.4403,1.4382,1.4409,1.4396,1.4373,1.4396,1.4373,1.4381,1.4386,1.4375,1.4401,1.439,1.4414,1.4406,1.4419,1.4399,1.4398,1.4404,1.4407,1.44,1.4399,1.4397,1.44,1.4417,1.4417,1.4418,1.4418,0,1.433,1.4348,1.4327,1.4341,1.4344,1.4327,1.4339,1.4327,1.4339,1.4325,1.4323,1.4341,1.4333,1.435,1.4344,1.4354,1.4325,1.4335,1.4323,1.4326,1.4299,1.4301,1.4213,1.4202,1.4291,1.429,1.4289,0,1.4287,1.4272,1.4285,1.428,1.4283,1.4274,1.4271,1.4294,1.429,1.4295,1.4283,1.4277,1.4273,1.4259,1.4271,1.4267,1.4276,1.4246,1.4276,1.427,1.4274,1.4274,1.4273,1.4239,1.4238,1.4237,1.4236,0,1.4209,1.4219,1.4214,1.4212,1.4208,1.4208,1.4209,1.4204,1.4228,1.4222,1.4214,1.4212,1.4207,1.4201,1.42,1.4204,1.4224,1.4228,1.4221,1.4213,1.4207,1.4209,1.4305,1.4229,1.4229,1.423,1.423,1.4231,1.4149,1.4137,1.4144,1.4138,1.4142,1.4143,1.4133,1.4145,1.4139,1.4137,1.4151,1.414,1.4147,1.4148,1.4151,1.4143,1.4156,1.4148,1.4145,1.4142,1.4137,1.421,1.4143,1.4143,1.4143,1.4144,1.4144,0,1.4071,1.4078,1.4072,1.4074,1.4069,1.409,1.4093,1.4088,1.4078,1.4083,1.408,1.4071,1.4066,1.4079,1.4076,1.4067,1.4076,1.4065,1.4065,1.4066,1.4126,1.4131,1.4058,1.4058,1.4058,1.4058,1.4058,1.4058,1.4029,1.401,1.4021,1.4004,1.4012,1.4002,1.4002,1.4003,1.4007,1.3997,1.3993,1.4002,1.401,1.4008,1.4004,1.4008,1.4005,1.3991,1.3998,1.4053,1.4062,1.4069,1.4074,1.3991,1.3991,1.3939,1.3938,1.3938]},{"header":{"parameterUnit":"m.s-1","parameterCategory":1,"la1":30.2991,"la2":30.254,"lo1":-89.0895,"lo2":-89.0444,"dy":0.0017,"dx":0.0017,"nx":28,"ny":28,"refTime":"2025-11-08T09:00:00:Z","depth":0,"parameterNumber":3,"parameterNumberName":"V-component_of_WINDS"},"data":[0,0,0,0,0,0,0,0,0,0,0,0,0,0,0,0,0,0,0,0,0,0,0,0,0,0,0,0,0,0,0,0,0,0,0,0,0,0,0,0,0,0,0,0,0,0,0,0,0,0,0,0,0,0,0,0,0,0,0.564,0.5639,0,0.5579,0.5578,0.5578,0.5523,0.5523,0.5522,0.5521,0.5458,0.5457,0.5456,0,0,0,0,0,0,0,0,0,0,0,0,0,0.5707,0.5706,0.564,0.5639,0.5638,0.5579,0.5578,0.5577,0.5523,0.5523,0.5522,0.5521,0.5459,0.5457,0.5456,0,0,0,0,0,0,0,0,0,0,0,0,0,0.5665,0.5706,0.564,0.5604,0.56,0.5579,0.5578,0.5577,0.5524,0.5523,0.5522,0.5521,0.5459,0.5457,0.5456,0.5465,0,0,0.5451,0.545,0,0,0,0,0,0,0,0,0.5668,0.5663,0.561,0.5607,0.5602,0.5558,0.5579,0.554,0.5524,0.5553,0.5521,0.552,0.5492,0.5488,0.5478,0.5462,0.5459,0.5451,0.545,0.5449,0.5449,0,0,0,0,0,0,0,0.5671,0.5665,0.5616,0.5609,0.5605,0.5591,0.5584,0.5571,0.5528,0.555,0.5546,0.554,0.549,0.548,0.5476,0.5458,0.5451,0.5449,0.5448,0.5448,0.5446,0.5447,0,0,0,0,0,0,0.5679,0.5668,0.5617,0.5614,0.5633,0.559,0.5582,0.5573,0.5528,0.5521,0.5541,0.5537,0.5483,0.5478,0.5474,0.5482,0.5449,0.5448,0.5447,0.5445,0.5446,0.5447,0,0,0,0,0,0,0.5681,0.5675,0.562,0.564,0.5632,0.559,0.558,0.5572,0.5563,0.5521,0.5513,0.5539,0.5482,0.5476,0.5468,0.5479,0.5447,0.5445,0.5444,0.5445,0.5446,0.5497,0,0,0,0,0,0,0.5683,0.5676,0.568,0.564,0.5631,0.5615,0.5581,0.5572,0.556,0.5555,0.5517,0.551,0.5481,0.547,0.5466,0.5476,0.5444,0.5443,0.5444,0.5446,0.5494,0.55,0.5505,0,0,0,0,0,0.5686,0.5696,0.568,0.5674,0.5634,0.5616,0.561,0.5577,0.5561,0.5564,0.5537,0.5511,0.5478,0.547,0.5464,0.5474,0.5442,0.5444,0.5446,0.5492,0.5499,0.5505,0,0,0,0,0,0,0.5738,0.569,0.5672,0.567,0.5648,0.5607,0.561,0.5586,0.5567,0.5563,0.5523,0.5514,0.551,0.5491,0.5483,0.548,0.5456,0.5457,0.5493,0.55,0.5505,0.551,0.5443,0,0,0,0,0,0.5749,0.5739,0.5697,0.57,0.5689,0.5652,0.5642,0.5619,0.5593,0.5583,0.5556,0.5532,0.5516,0.5507,0.549,0.5491,0.5482,0.5495,0.55,0.5505,0.5507,0.5506,0.5511,0.5454,0.5454,0.5454,0,0,0.5772,0.5745,0.5741,0.5709,0.5689,0.5679,0.5644,0.5634,0.5626,0.5582,0.5572,0.5551,0.5522,0.5518,0.5515,0.5502,0.552,0.5508,0.5512,0.5511,0.5508,0.5514,0.5519,0.5455,0.5455,0.5455,0,0,0.5809,0.5788,0.5787,0.5768,0.5737,0.5712,0.5712,0.5675,0.5659,0.5649,0.5615,0.5604,0.5578,0.5558,0.5545,0.5574,0.5549,0.557,0.5598,0.5598,0.5602,0.5606,0.5617,0.5621,0.5571,0.5571,0.5571,0,0.5842,0.5825,0.579,0.5783,0.577,0.5729,0.5728,0.5711,0.5676,0.5668,0.5654,0.562,0.5597,0.5588,0.5595,0.5586,0.5584,0.5574,0.5604,0.5608,0.5611,0.5621,0.5625,0.5574,0.5574,0.5573,0.5573,0,0.5867,0.5856,0.5859,0.5828,0.5815,0.5811,0.5774,0.5765,0.5743,0.5719,0.5708,0.568,0.5656,0.5652,0.563,0.564,0.5633,0.5612,0.5587,0.562,0.5628,0.5631,0.5578,0.5577,0.5576,0.5575,0,0,0.5936,0.5884,0.5886,0.5871,0.5835,0.5825,0.5819,0.5796,0.579,0.5767,0.5761,0.5739,0.572,0.5704,0.5679,0.5679,0.5704,0.5658,0.5657,0.5668,0.5713,0.573,0.5735,0.5687,0.5687,0.5688,0.5716,0,0.5967,0.5955,0.5922,0.5919,0.5909,0.5869,0.5864,0.5841,0.5818,0.5805,0.5779,0.5765,0.574,0.5731,0.5728,0.5701,0.5713,0.5699,0.5681,0.568,0.569,0.5739,0.5756,0.5784,0.5719,0.572,0.572,0,0.6003,0.5983,0.5979,0.5943,0.5937,0.5933,0.591,0.5898,0.587,0.5854,0.5837,0.5809,0.5799,0.5776,0.5763,0.5754,0.5744,0.573,0.573,0.5728,0.5703,0.5738,0.5792,0.5797,0.5725,0.5724,0.5724,0,0.6054,0.6026,0.6021,0.6009,0.5966,0.5964,0.5946,0.5918,0.5906,0.5885,0.5877,0.5855,0.5844,0.5827,0.5794,0.578,0.5784,0.5758,0.577,0.5771,0.5773,0.5774,0.5827,0.5766,0.5766,0.5766,0.5766,0,0.6093,0.6092,0.6043,0.604,0.6037,0.6,0.5998,0.5976,0.5951,0.5943,0.5907,0.5899,0.5856,0.5843,0.5816,0.5809,0.5804,0.579,0.5783,0.5794,0.5796,0.5787,0.5785,0.5767,0.5767,0.5767,0.5766,0,0.615,0.6117,0.6108,0.6069,0.6059,0.6059,0.6025,0.602,0.5994,0.5984,0.5979,0.5939,0.5922,0.5887,0.586,0.5843,0.5842,0.5829,0.5851,0.5847,0.5861,0.5861,0.5912,0.5917,0.5853,0.5853,0.5854,0,0.6178,0.6177,0.6137,0.6129,0.6112,0.6099,0.6087,0.6049,0.6038,0.6007,0.6005,0.5985,0.5968,0.5942,0.591,0.589,0.5877,0.5896,0.5873,0.5884,0.5877,0.5878,0.5878,0.5901,0.5902,0.5903,0.5903,0,0.623,0.6214,0.6198,0.6177,0.6164,0.6145,0.6124,0.6119,0.6076,0.6066,0.6048,0.6034,0.6007,0.5987,0.5962,0.5942,0.5916,0.5911,0.5912,0.5923,0.5937,0.593,0.5866,0.591,0.5909,0.5909,0.5908,0.5908,0.6274,0.6271,0.6242,0.6226,0.6206,0.6188,0.6181,0.6155,0.614,0.6115,0.6093,0.6077,0.6049,0.6012,0.5994,0.5981,0.5968,0.597,0.5971,0.5973,0.5977,0.5938,0.5976,0.5976,0.5976,0.5975,0.5975,0,0.6325,0.6305,0.629,0.6262,0.6249,0.6225,0.6201,0.6191,0.6178,0.6154,0.6137,0.6117,0.6098,0.6065,0.6043,0.6038,0.6026,0.6034,0.6034,0.603,0.599,0.5991,0.6045,0.6045,0.6045,0.6045,0.6045,0.6045,0.635,0.6344,0.6324,0.6307,0.6286,0.6271,0.6259,0.6242,0.6222,0.6201,0.6185,0.6164,0.6136,0.6111,0.6093,0.6083,0.6077,0.6089,0.6076,0.6039,0.6033,0.6027,0.6028,0.6088,0.6088,0.6118,0.6118,0.6118]}]]